Printer-friendly version

IAU Minor Planet Center

Minor Planet Center

MPEC 2008-B32 : 2008 BV2

The following Minor Planet Electronic Circular may be linked-to from your own Web pages, but must not otherwise be redistributed electronically.


Read MPEC 2008-B31 Read MPEC 2008-B33


M.P.E.C. 2008-B32                                Issued 2008 Jan. 22, 12:57 UT

     The Minor Planet Electronic Circulars contain information on unusual
         minor planets and routine data on comets.  They are published
   on behalf of Commission 20 of the International Astronomical Union by the
          Minor Planet Center, Smithsonian Astrophysical Observatory,
                          Cambridge, MA 02138, U.S.A.

             Prepared using the Tamkin Foundation Computer Network

                              MPC@CFA.HARVARD.EDU
          URL http://www.cfa.harvard.edu/iau/mpc.html  ISSN 1523-6714

                                   2008 BV2

Observations:
     K08B02V* C2008 01 19.25604 09 20 06.28 +31 18 37.2          20.6 V EB032G96
     K08B02V  C2008 01 19.26132 09 20 06.46 +31 18 30.8          21.6 V EB032G96
     K08B02V  C2008 01 19.26670 09 20 06.61 +31 18 24.0          21.6 V EB032G96
     K08B02V  C2008 01 19.27201 09 20 06.79 +31 18 17.1          21.9 V EB032G96
     K08B02V  C2008 01 19.36178 09 20 08.80 +31 16 15.4          21.1 V EB032G96
     K08B02V  C2008 01 19.36390 09 20 08.74 +31 16 12.7          20.6 V EB032G96
     K08B02V  C2008 01 19.36603 09 20 08.85 +31 16 08.7          21.1 V EB032G96
     K08B02V  C2008 01 19.36818 09 20 08.95 +31 16 06.6          22.3 V EB032G96
     K08B02V  C2008 01 20.28501 09 20 42.74 +30 54 39.0                 EB032291
     K08B02V HC2008 01 20.28924 09 20 42.83 +30 54 32.2                 EB032291
     K08B02V HC2008 01 20.29346 09 20 42.92 +30 54 25.0                 EB032291
     K08B02V  C2008 01 20.29706509 20 42.09 +30 54 19.0          21.3 V EB032H55
     K08B02V  C2008 01 20.31534509 20 42.46 +30 53 53.1          21.6 V EB032H55
     K08B02V  C2008 01 20.33493109 20 42.95 +30 53 25.2          21.0 V EB032H55
     K08B02V  C2008 01 20.37902 09 20 44.58 +30 52 26.6          20.2 V EB032G96
     K08B02V  C2008 01 20.38290 09 20 44.67 +30 52 20.9                 EB032G96
     K08B02V  C2008 01 20.38676 09 20 44.75 +30 52 15.3          20.6 V EB032G96
     K08B02V  C2008 01 20.39064 09 20 44.85 +30 52 09.9          20.4 V EB032G96
     K08B02V  C2008 01 20.50819 09 20 47.22 +30 49 16.9                 EB032G96
     K08B02V  C2008 01 20.51032 09 20 47.29 +30 49 15.4          20.7 V EB032G96
     K08B02V  C2008 01 20.51250 09 20 47.37 +30 49 11.7                 EB032G96

Observer details:
291 LPL/Spacewatch II.  Observer T. H. Bressi.  1.8-m f/2.7 reflector + CCD.
G96 Mt. Lemmon Survey.  Observer A. Boattini.  Measurers E. C. Beshore,
    A. Boattini, G. J. Garradd, A. R. Gibbs, A. D. Grauer, R. E. Hill,
    R. A. Kowalski, S. M. Larson, R. H. McNaught.  1.5-m reflector + CCD.
H55 Astronomical Research Observatory, Charleston.  Observer R. Holmes.
    0.81-m f/4.0 astrograph + CCD.

Orbital elements:
2008 BV2                                                 Earth MOID = 0.2387 AU
Epoch 2007 Oct. 27.0 TT = JDT 2454400.5                 MPC
M 333.74535              (2000.0)            P               Q
n   0.33442865     Peri.  142.20105     -0.43983001     -0.89708545
a   2.0555769      Node   333.81265     +0.79885567     -0.36929288
e   0.4094986      Incl.    5.49720     +0.41034033     -0.24261176
P   2.95           H   22.9           G   0.15           U   9
Residuals in seconds of arc
080119 G96  0.4-  0.9-    080119 G96  0.2+  0.5+    080120 G96  0.1+  0.1-
080119 G96  0.2+  0.3-    080120 291  0.2-  1.0+    080120 G96  0.3+  0.3-
080119 G96  0.4+  0.0     080120 291  0.2-  0.0     080120 G96  0.4+  0.3-
080119 G96  1.0+  0.2+    080120 291  0.2-  1.5-    080120 G96  0.7+  0.2-
080119 G96  0.1+  0.4+    080120 H55  0.4+  0.6+    080120 G96  0.7-  0.8-
080119 G96  1.2-  0.7+    080120 H55  0.3+  0.6+    080120 G96  0.5-  0.9+
080119 G96  0.4-  0.4-    080120 H55  1.5+  0.7+    080120 G96  0.2-  0.5+

Ephemeris:
2008 BV2                 a,e,i = 2.06, 0.41, 5                   q = 1.2138
Date    TT    R. A. (2000) Decl.     Delta      r     Elong.  Phase     V
2008 01 15    09 16.96   +32 52.9    0.247    1.214   156.4    19.0    21.3
2008 01 25    09 22.88   +28 59.3    0.243    1.219   163.8    13.0    21.0
2008 02 04    09 24.91   +24 36.6    0.249    1.233   170.9     7.2    20.9
2008 02 14    09 25.61   +20 12.5    0.268    1.253   171.4     6.8    21.0
2008 02 24    09 27.38   +16 11.7    0.300    1.281   164.4    12.0    21.6

Timothy B. Spahr             (C) Copyright 2008 MPC           M.P.E.C. 2008-B32

Read MPEC 2008-B31 Read MPEC 2008-B33


Our Web policy. Index to the CBAT/MPC/ICQ pages.


Valid HTML 4.01!